#timestamp,LO_Frequency,Hit,StdDev 
1595246415.2,286046995.4,N
1595246435.0,286046994.3,Y
1595246435.9,286046994.3,P
1595246455.8,286046994.6,N
1595246475.6,286046994.6,P
1595246495.4,286046992.6,Y
1595246515.3,286046997.3,P
1595246535.1,286046997.4,N
1595246555.9,286046998.7,N
1595246575.7,286047000.8,N
1595246595.5,286047001.1,N
1595246615.4,286046998.9,N
1595246635.2,286046996.9,N
1595246655.0,286046998.0,N
1595246655.9,286046998.0,N
1595246675.8,286046995.2,N
1595246695.6,286046995.8,N
1595246715.5,286046995.7,N
1595246735.3,286046995.1,N
1595246755.2,286046993.8,Y
1595246775.9,286046996.7,P
1595246795.7,286046997.2,P
1595246815.6,286046998.5,P
1595246835.4,286046996.8,Y
1595246855.3,286047000.6,P
1595246875.1,286046999.9,N
1595246876.0,286046999.9,N
1595246895.8,286047000.4,N
1595246915.7,286047000.8,N
1595246935.5,286047002.7,N
1595246955.3,286047002.6,N
1595246975.2,286046999.9,N
1595246995.0,286046999.7,N
1595246995.9,286046999.7,N
1595247015.8,286047000.9,N
1595247035.6,286046998.1,N
1595247055.4,286046998.5,N
1595247075.3,286046998.7,N
1595247095.1,286046998.3,N
1595247115.9,286046998.2,N
1595247135.7,286046998.3,N
1595247155.5,286046998.7,N
1595247175.4,286046999.3,N
1595247195.2,286047001.5,N
1595247215.0,286047004.0,N
1595247215.9,286047004.0,N
1595247235.8,286047001.3,N
1595247255.6,286046999.8,N
1595247275.5,286047000.9,N
1595247295.3,286046999.9,N
1595247315.1,286047002.6,N
1595247335.9,286047001.5,N
1595247355.7,286047002.3,N
1595247375.5,286046999.8,N
1595247395.4,286046999.7,N
1595247415.2,286047002.3,N
1595247435.1,286047001.6,N
1595247436.0,286047001.6,N
1595247455.8,286047001.3,N
1595247475.7,286047001.4,N
1595247495.5,286047001.9,N
1595247515.3,286047002.2,N
1595247535.2,286047004.4,N
1595247555.0,286047002.9,N
1595247555.9,286047002.9,N
1595247575.7,286047005.5,N
1595247595.6,286047003.2,N
1595247615.4,286047002.6,N
1595247635.3,286047002.2,N
1595247655.1,286047001.6,N
1595247675.8,286047002.2,N
1595247695.7,286047003.8,N
1595247715.5,286047001.8,N
1595247735.4,286047001.9,N
1595247755.2,286047001.7,N
1595247775.0,286047001.5,N
1595247775.9,286047001.5,N
1595247795.8,286047004.2,Y
1595247815.6,286047002.2,P
1595247835.5,286046999.7,N
1595247855.3,286047000.9,N
1595247875.1,286047001.1,N
1595247895.9,286047000.4,N
1595247915.7,286047002.6,Y
1595247935.6,286047001.0,P
1595247955.4,286047000.7,P
1595247975.2,286047000.8,P
1595247995.1,286046998.3,Y
1595247996.0,286046998.3,P
1595248015.8,286046996.6,N
1595248035.7,286046997.4,N
1595248055.5,286046997.4,N
1595248075.3,286046997.8,N
1595248095.2,286046997.8,N
1595248115.0,286046997.9,N
1595248115.9,286046997.9,N
1595248135.8,286046997.3,N
1595248155.6,286046999.1,N
1595248175.4,286046998.8,N
1595248195.3,286046998.9,N
1595248215.1,286046998.6,N
1595248235.8,286047001.0,N
1595248255.7,286046998.5,N
1595248275.5,286047001.2,N
1595248295.4,286047000.5,N
1595248315.2,286046999.4,N
1595248335.0,286046999.6,N
1595248335.9,286046999.6,N
1595248355.8,286046999.4,N
1595248375.6,286046998.6,N
1595248395.4,286046998.3,N
1595248415.3,286046999.6,N
1595248435.1,286046996.8,N
1595248455.9,286046996.9,N
1595248475.7,286046997.1,N
1595248495.5,286046997.7,N
1595248515.4,286046996.7,N
1595248535.2,286046997.0,N
1595248555.1,286046996.7,N
1595248556.0,286046996.7,N
1595248575.8,286046999.4,N
1595248595.6,286046999.4,N
1595248615.5,286046999.6,N
1595248635.3,286046996.6,N
1595248655.1,286046998.5,N
1595248675.9,286046998.8,N
1595248695.7,286046997.2,N
1595248715.6,286046999.1,N
1595248735.4,286046998.4,N
1595248755.2,286046999.1,N
1595248775.1,286046998.8,N
1595248776.0,286046998.8,N
1595248795.8,286046999.5,N
1595248815.7,286046999.1,N
1595248835.5,286046999.1,N
1595248855.3,286046998.1,N
1595248875.2,286046999.8,N
1595248895.0,286047000.4,N
1595248895.9,286047000.4,N
1595248915.8,286047000.1,N
1595248935.6,286047000.2,N
1595248955.4,286046999.9,N
1595248975.3,286047000.5,N
1595248995.1,286047000.5,N
1595249015.8,286046999.9,N
1595249035.7,286047002.8,N
1595249055.5,286047002.3,N
1595249075.4,286047002.6,N
1595249095.2,286047000.4,N
1595249115.0,286046998.9,N
1595249115.9,286046998.9,N
1595249135.8,286046999.0,N
1595249155.6,286047006.1,Y
1595249175.5,286047010.0,P
1595249195.3,286047010.1,N
1595249215.1,286047010.8,N
1595249235.9,286047008.1,N
1595249255.7,286047010.4,N
1595249275.5,286047009.9,N
1595249295.4,286047010.7,N
1595249315.2,286047008.0,N
1595249335.1,286047006.1,N
1595249336.0,286047006.1,N
1595249355.8,286047006.5,N
1595249375.6,286047010.7,Y
1595249395.5,286047000.7,P
1595249415.3,286047002.8,N
1595249435.2,286047000.4,N
1595249455.9,286046999.3,N
1595249475.7,286046998.3,N
1595249495.6,286047000.4,N
1595249515.4,286047000.4,N
1595249535.2,286047000.6,N
1595249555.1,286047000.4,N
1595249556.0,286047000.4,N
1595249575.8,286047002.0,N
1595249595.7,286047002.1,N
1595249615.5,286047002.0,N
1595249635.3,286046999.7,N
1595249655.2,286047000.2,N
1595249675.0,286047000.0,N
1595249675.9,286047000.0,N
1595249695.8,286047000.9,N
1595249715.6,286046998.5,N
1595249735.4,286046998.5,N
1595249755.3,286046996.9,N
1595249775.1,286046999.1,N
1595249795.9,286047001.1,N
1595249815.7,286046998.4,N
1595249835.5,286046998.7,N
1595249855.4,286047002.8,N
1595249875.2,286047002.8,N
1595249895.0,286046998.1,N
1595249895.9,286046998.1,N
1595249915.8,286047000.0,N
1595249935.6,286047002.5,N
1595249955.5,286047000.2,N
1595249975.3,286047000.8,N
1595249995.1,286046999.5,N
